FW9014 Weather Reports


Display with metric or nautical units.
time (UTC)temp
F
wind
direction
speed
MPH
gust
MPH
rain 1hr
in
rain 24hr
in
rain mn
in
humidity
%
barometer
mb
20260503203047 81 233 1.0 5.0 0.00 0.02 0.01 33 1020.1
20260503201549 80 0 0.0 3.0 0.00 0.02 0.01 34 1020.3
20260503200048 81 0 0.0 3.0 0.00 0.02 0.01 33 1020.7
20260503194548 84 241 0.0 3.0 0.00 0.02 0.01 32 1021.0
20260503193056 87 0 0.0 0.0 0.00 0.02 0.01 32 1021.3
20260503191607 86 0 0.0 2.0 0.00 0.02 0.01 31 1021.3
20260503190050 84 0 0.0 2.0 0.00 0.02 0.01 33 1021.5
20260503184548 83 0 0.0 0.0 0.00 0.02 0.01 36 1021.5
20260503183047 83 0 0.0 0.0 0.00 0.02 0.01 38 1021.9
20260503181550 78 0 0.0 0.0 0.00 0.02 0.01 43 1022.0
20260503180056 76 0 0.0 2.0 0.00 0.02 0.01 44 1022.3
20260503174553 77 0 0.0 1.0 0.00 0.02 0.01 46 1022.5
20260503173048 78 0 0.0 2.0 0.00 0.02 0.01 43 1022.9
20260503171551 81 0 0.0 0.0 0.00 0.02 0.01 43 1023.1
20260503160107 73 196 0.0 3.0 0.01 0.02 0.01 60 1023.4
20260503081554 59 0 0.0 2.0 0.00 0.02 0.00 85 1021.0
20260503071603 58 95 2.0 4.0 0.00 0.02 0.00 83 1021.1
20260503054606 62 107 2.0 4.0 0.00 0.02 0.00 77 1021.1
20260503053042 61 97 2.0 3.0 0.00 0.02 0.00 76 1021.1
20260503051546 61 89 2.0 4.0 0.00 0.02 0.00 76 1021.1
20260503050049 62 106 1.0 4.0 0.00 0.02 0.00 75 1021.0
20260503044547 62 0 0.0 2.0 0.00 0.02 0.02 71 1020.9
20260503043053 62 0 0.0 2.0 0.00 0.02 0.02 70 1020.9
20260503041547 62 0 0.0 2.0 0.00 0.02 0.02 70 1021.0
20260503040055 63 0 0.0 2.0 0.00 0.02 0.02 70 1021.0
20260503034550 63 0 0.0 2.0 0.00 0.02 0.02 68 1020.8
20260503033051 64 0 0.0 1.0 0.00 0.02 0.02 68 1020.7
20260503031547 64 0 0.0 1.0 0.00 0.02 0.02 66 1020.8
20260503030049 65 0 0.0 2.0 0.01 0.02 0.02 64 1020.7
20260503024550 66 0 0.0 3.0 0.01 0.03 0.02 62 1020.6
20260503023054 66 74 0.0 2.0 0.01 0.03 0.02 60 1020.3
20260503021545 67 0 0.0 2.0 0.01 0.03 0.02 58 1020.1
20260503020052 68 0 0.0 2.0 0.00 0.02 0.01 57 1019.9
20260503014600 68 0 0.0 0.0 0.00 0.02 0.01 56 1019.7
20260503013051 69 0 0.0 0.0 0.00 0.02 0.01 54 1019.6
20260503011552 70 0 0.0 2.0 0.00 0.02 0.01 54 1019.5
20260503010052 71 0 0.0 2.0 0.00 0.02 0.01 51 1019.4
20260503004551 73 0 0.0 2.0 0.00 0.02 0.01 50 1019.2
20260503003052 73 0 0.0 3.0 0.00 0.02 0.01 48 1019.1
20260503001550 74 70 0.0 4.0 0.00 0.02 0.01 48 1018.8
20260503000046 74 0 1.0 6.0 0.00 0.02 0.01 48 1018.7
20260502234555 74 75 3.0 12.0 0.00 0.02 0.01 46 1018.6
20260502233048 75 49 2.0 12.0 0.00 0.02 0.01 46 1018.6
20260502231546 75 352 2.0 8.0 0.00 0.02 0.01 46 1018.5
20260502230048 75 153 3.0 9.0 0.00 0.02 0.01 47 1018.6
20260502224550 74 55 2.0 10.0 0.00 0.02 0.01 49 1018.6
20260502223046 73 9 7.0 11.0 0.00 0.02 0.01 47 1018.7
20260502221544 73 36 4.0 10.0 0.00 0.02 0.01 48 1018.7
20260502220055 74 26 8.0 13.0 0.00 0.02 0.01 49 1018.6
20260502214555 74 346 3.0 8.0 0.00 0.02 0.01 46 1018.6
20260502213047 73 0 7.0 13.0 0.00 0.02 0.01 45 1018.7
20260502211546 73 56 5.0 14.0 0.00 0.02 0.01 47 1018.9
20260502210106 73 30 12.0 16.0 0.00 0.02 0.01 48 1018.9
20260502204556 74 23 5.0 12.0 0.00 0.02 0.01 46 1019.0